Time,TemperatureF,DewpointF,PressureIn,WindDirection,WindDirectionDegrees,WindSpeedMPH,WindSpeedGustMPH,Humidity,HourlyPrecipIn,Conditions,Clouds,dailyrainin,SolarRadiationWatts/m^2,SoftwareType,DateUTC
2013-05-08 00:00:00,60.6,45.0,29.76,ESE,113,2.0,-999.0,57,-99.99,,,0.00,0,weatherlink.com 1.10,2013-05-07 23:00:00,
2013-05-08 00:15:00,60.2,44.0,29.75,ESE,120,15.0,-999.0,55,-99.99,,,0.00,0,weatherlink.com 1.10,2013-05-07 23:15:00,
2013-05-08 00:31:00,60.0,43.0,29.74,East,92,2.0,-999.0,54,-99.99,,,0.00,0,weatherlink.com 1.10,2013-05-07 23:31:00,
2013-05-08 00:46:00,59.4,43.0,29.74,ESE,117,0.0,-999.0,56,-99.99,,,0.00,0,weatherlink.com 1.10,2013-05-07 23:46:00,
2013-05-08 01:01:00,58.4,43.0,29.74,WNW,302,0.0,-999.0,57,-99.99,,,0.00,0,weatherlink.com 1.10,2013-05-08 00:01:00,
2013-05-08 01:16:00,57.5,44.0,29.73,NE,35,1.0,-999.0,60,-99.99,,,0.00,0,weatherlink.com 1.10,2013-05-08 00:16:00,
2013-05-08 01:31:00,56.4,45.0,29.73,North,355,0.0,-999.0,66,-99.99,,,0.00,0,weatherlink.com 1.10,2013-05-08 00:31:00,
2013-05-08 01:46:00,55.2,44.0,29.72,North,5,2.0,-999.0,67,-99.99,,,0.00,0,weatherlink.com 1.10,2013-05-08 00:46:00,
2013-05-08 02:01:00,54.5,43.0,29.72,North,5,2.0,-999.0,66,-99.99,,,0.00,0,weatherlink.com 1.10,2013-05-08 01:01:00,
2013-05-08 02:16:00,54.3,45.0,29.71,NNE,26,4.0,-999.0,70,-99.99,,,0.00,0,weatherlink.com 1.10,2013-05-08 01:16:00,
2013-05-08 02:31:00,54.0,44.0,29.71,NE,53,3.0,-999.0,70,-99.99,,,0.00,0,weatherlink.com 1.10,2013-05-08 01:31:00,
2013-05-08 02:46:00,53.7,44.0,29.70,North,355,3.0,-999.0,70,-99.99,,,0.00,0,weatherlink.com 1.10,2013-05-08 01:46:00,
2013-05-08 03:01:00,53.3,44.0,29.69,NE,54,3.0,-999.0,70,-99.99,,,0.00,0,weatherlink.com 1.10,2013-05-08 02:01:00,
2013-05-08 03:16:00,53.1,43.0,29.69,NNW,338,3.0,-999.0,69,-99.99,,,0.00,0,weatherlink.com 1.10,2013-05-08 02:16:00,
2013-05-08 03:31:00,52.7,43.0,29.68,NE,51,4.0,-999.0,70,-99.99,,,0.00,0,weatherlink.com 1.10,2013-05-08 02:31:00,
2013-05-08 03:46:00,52.4,43.0,29.67,NE,40,3.0,-999.0,70,-99.99,,,0.00,0,weatherlink.com 1.10,2013-05-08 02:46:00,
2013-05-08 04:01:00,52.0,43.0,29.66,NNW,342,1.0,-999.0,71,-99.99,,,0.00,0,weatherlink.com 1.10,2013-05-08 03:01:00,
2013-05-08 04:16:00,51.6,43.0,29.66,NNE,22,2.0,-999.0,73,-99.99,,,0.00,0,weatherlink.com 1.10,2013-05-08 03:16:00,
2013-05-08 04:31:00,51.3,43.0,29.65,NNW,346,2.0,-999.0,74,-99.99,,,0.00,0,weatherlink.com 1.10,2013-05-08 03:31:00,
2013-05-08 04:46:00,51.2,44.0,29.64,NW,319,3.0,-999.0,75,-99.99,,,0.00,0,weatherlink.com 1.10,2013-05-08 03:46:00,
2013-05-08 05:01:00,51.3,44.0,29.63,NNW,346,2.0,-999.0,75,-99.99,,,0.00,0,weatherlink.com 1.10,2013-05-08 04:01:00,
2013-05-08 05:16:00,51.3,44.0,29.62,NW,313,4.0,-999.0,76,-99.99,,,0.00,0,weatherlink.com 1.10,2013-05-08 04:16:00,
2013-05-08 05:31:00,51.5,44.0,29.61,NE,34,3.0,-999.0,76,-99.99,,,0.00,0,weatherlink.com 1.10,2013-05-08 04:31:00,
2013-05-08 05:47:00,51.6,44.0,29.61,NNE,31,7.0,-999.0,76,-99.99,,,0.00,0,weatherlink.com 1.10,2013-05-08 04:47:00,
2013-05-08 06:02:00,51.5,44.0,29.60,NNE,21,8.0,-999.0,76,-99.99,,,0.00,5,weatherlink.com 1.10,2013-05-08 05:02:00,
2013-05-08 06:17:00,51.5,44.0,29.59,NE,51,7.0,-999.0,76,-99.99,,,0.00,16,weatherlink.com 1.10,2013-05-08 05:17:00,
2013-05-08 06:32:00,51.4,44.0,29.58,North,11,9.0,-999.0,77,-99.99,,,0.00,25,weatherlink.com 1.10,2013-05-08 05:32:00,
2013-05-08 06:47:00,51.5,45.0,29.57,NNE,23,7.0,-999.0,77,-99.99,,,0.00,26,weatherlink.com 1.10,2013-05-08 05:47:00,
2013-05-08 07:02:00,51.5,45.0,29.56,NE,41,5.0,-999.0,77,-99.99,,,0.00,21,weatherlink.com 1.10,2013-05-08 06:02:00,
2013-05-08 07:17:00,51.6,45.0,29.56,North,11,12.0,-999.0,78,-99.99,,,0.00,42,weatherlink.com 1.10,2013-05-08 06:17:00,
2013-05-08 07:32:00,51.6,45.0,29.55,North,5,7.0,-999.0,79,-99.99,,,0.00,49,weatherlink.com 1.10,2013-05-08 06:32:00,
2013-05-08 07:47:00,51.7,46.0,29.54,NE,52,7.0,-999.0,80,-99.99,,,0.00,46,weatherlink.com 1.10,2013-05-08 06:47:00,
2013-05-08 08:02:00,51.9,46.0,29.53,NNE,25,4.0,-999.0,80,-99.99,,,0.00,58,weatherlink.com 1.10,2013-05-08 07:02:00,
2013-05-08 08:17:00,52.9,47.0,29.53,NE,44,10.0,-999.0,79,-99.99,,,0.00,69,weatherlink.com 1.10,2013-05-08 07:17:00,
2013-05-08 08:32:00,53.2,47.0,29.52,NNE,30,7.0,-999.0,79,-99.99,,,0.00,86,weatherlink.com 1.10,2013-05-08 07:32:00,
2013-05-08 08:47:00,53.3,47.0,29.52,NE,50,8.0,-999.0,79,-99.99,,,0.00,98,weatherlink.com 1.10,2013-05-08 07:47:00,
2013-05-08 09:02:00,53.3,47.0,29.51,NNW,336,2.0,-999.0,80,-99.99,,,0.00,146,weatherlink.com 1.10,2013-05-08 08:02:00,
2013-05-08 09:17:00,54.0,48.0,29.50,NNE,23,12.0,-999.0,81,-99.99,,,0.00,127,weatherlink.com 1.10,2013-05-08 08:17:00,
2013-05-08 09:32:00,54.5,48.0,29.49,NE,47,8.0,-999.0,80,-99.99,,,0.00,141,weatherlink.com 1.10,2013-05-08 08:32:00,
2013-05-08 09:47:00,55.2,50.0,29.48,NNE,15,5.0,-999.0,81,-99.99,,,0.00,127,weatherlink.com 1.10,2013-05-08 08:47:00,
2013-05-08 10:02:00,56.0,50.0,29.48,North,11,6.0,-999.0,80,-99.99,,,0.00,111,weatherlink.com 1.10,2013-05-08 09:02:00,
2013-05-08 10:17:00,56.3,50.0,29.47,East,84,6.0,-999.0,80,-99.99,,,0.00,98,weatherlink.com 1.10,2013-05-08 09:17:00,
2013-05-08 10:32:00,56.7,51.0,29.46,ENE,69,7.0,-999.0,80,-99.99,,,0.00,76,weatherlink.com 1.10,2013-05-08 09:32:00,
2013-05-08 10:47:00,57.2,51.0,29.45,ENE,74,3.0,-999.0,80,-99.99,,,0.00,63,weatherlink.com 1.10,2013-05-08 09:47:00,
2013-05-08 11:02:00,59.0,52.0,29.45,ENE,64,5.0,-999.0,78,-99.99,,,0.00,62,weatherlink.com 1.10,2013-05-08 10:02:00,
2013-05-08 11:17:00,58.8,52.0,29.44,East,82,8.0,-999.0,79,-99.99,,,0.00,58,weatherlink.com 1.10,2013-05-08 10:17:00,
2013-05-08 11:32:00,58.8,52.0,29.43,NE,49,7.0,-999.0,79,-99.99,,,0.00,70,weatherlink.com 1.10,2013-05-08 10:32:00,
2013-05-08 11:48:00,58.6,52.0,29.42,ESE,112,4.0,-999.0,80,-99.99,,,0.00,93,weatherlink.com 1.10,2013-05-08 10:48:00,
2013-05-08 12:03:00,58.3,53.0,29.41,East,86,12.0,-999.0,83,-99.99,,,0.00,149,weatherlink.com 1.10,2013-05-08 11:03:00,
2013-05-08 12:18:00,58.4,53.0,29.41,ESE,118,12.0,-999.0,81,-99.99,,,0.00,130,weatherlink.com 1.10,2013-05-08 11:18:00,
2013-05-08 12:33:00,58.5,53.0,29.41,ESE,112,14.0,-999.0,81,-99.99,,,0.00,90,weatherlink.com 1.10,2013-05-08 11:33:00,
2013-05-08 12:48:00,57.9,52.0,29.41,East,95,12.0,-999.0,82,-99.99,,,0.00,104,weatherlink.com 1.10,2013-05-08 11:48:00,
2013-05-08 13:03:00,57.3,53.0,29.40,SE,126,14.0,-999.0,85,-99.99,,,0.00,44,weatherlink.com 1.10,2013-05-08 12:03:00,
2013-05-08 13:18:00,56.9,53.0,29.40,East,96,6.0,-999.0,86,-99.99,,,0.00,44,weatherlink.com 1.10,2013-05-08 12:18:00,
2013-05-08 13:33:00,56.9,53.0,29.39,SE,140,6.0,-999.0,86,-99.99,,,0.00,53,weatherlink.com 1.10,2013-05-08 12:33:00,
2013-05-08 13:48:00,57.0,53.0,29.39,SE,130,7.0,-999.0,85,-99.99,,,0.00,49,weatherlink.com 1.10,2013-05-08 12:48:00,
2013-05-08 14:03:00,56.7,53.0,29.39,ESE,107,11.0,-999.0,86,-99.99,,,0.00,120,weatherlink.com 1.10,2013-05-08 13:03:00,
2013-05-08 14:18:00,57.3,53.0,29.38,South,171,8.0,-999.0,85,-99.99,,,0.00,83,weatherlink.com 1.10,2013-05-08 13:18:00,
2013-05-08 14:33:00,57.1,53.0,29.38,ESE,117,5.0,-999.0,85,-99.99,,,0.00,28,weatherlink.com 1.10,2013-05-08 13:33:00,
2013-05-08 14:48:00,56.6,52.0,29.38,SE,129,11.0,-999.0,83,-99.99,,,0.00,42,weatherlink.com 1.10,2013-05-08 13:48:00,
2013-05-08 15:03:00,56.0,51.0,29.38,East,88,8.0,-999.0,82,-99.99,,,0.00,33,weatherlink.com 1.10,2013-05-08 14:03:00,
2013-05-08 15:18:00,55.5,50.0,29.39,ESE,107,7.0,-999.0,83,-99.99,,,0.00,49,weatherlink.com 1.10,2013-05-08 14:18:00,
2013-05-08 15:33:00,55.1,50.0,29.39,ESE,113,9.0,-999.0,84,-99.99,,,0.00,53,weatherlink.com 1.10,2013-05-08 14:33:00,
2013-05-08 15:48:00,54.3,51.0,29.39,SSE,150,12.0,-999.0,87,-99.99,,,0.00,35,weatherlink.com 1.10,2013-05-08 14:48:00,
2013-05-08 16:03:00,54.1,51.0,29.39,SSE,148,9.0,-999.0,88,-99.99,,,0.00,30,weatherlink.com 1.10,2013-05-08 15:03:00,
2013-05-08 16:18:00,54.2,51.0,29.40,SSE,160,8.0,-999.0,87,-99.99,,,0.00,74,weatherlink.com 1.10,2013-05-08 15:18:00,
2013-05-08 16:33:00,54.4,51.0,29.39,SE,138,13.0,-999.0,87,-99.99,,,0.00,120,weatherlink.com 1.10,2013-05-08 15:33:00,
2013-05-08 16:48:00,54.7,51.0,29.40,SE,133,5.0,-999.0,86,-99.99,,,0.00,113,weatherlink.com 1.10,2013-05-08 15:48:00,
2013-05-08 17:03:00,54.9,51.0,29.40,SSE,149,2.0,-999.0,85,-99.99,,,0.00,62,weatherlink.com 1.10,2013-05-08 16:03:00,
2013-05-08 17:18:00,54.7,50.0,29.40,SE,130,6.0,-999.0,85,-99.99,,,0.00,35,weatherlink.com 1.10,2013-05-08 16:18:00,
2013-05-08 17:33:00,54.5,50.0,29.39,SE,139,5.0,-999.0,85,-99.99,,,0.00,74,weatherlink.com 1.10,2013-05-08 16:33:00,
2013-05-08 17:48:00,54.4,50.0,29.39,SE,136,8.0,-999.0,86,-99.99,,,0.00,69,weatherlink.com 1.10,2013-05-08 16:48:00,
2013-05-08 18:03:00,54.1,50.0,29.40,SSE,163,14.0,-999.0,87,-99.99,,,0.01,46,weatherlink.com 1.10,2013-05-08 17:03:00,
2013-05-08 18:18:00,53.3,50.0,29.40,SE,133,5.0,-999.0,89,-99.99,,,0.01,33,weatherlink.com 1.10,2013-05-08 17:18:00,
2013-05-08 18:33:00,53.0,50.0,29.40,SE,140,10.0,-999.0,90,-99.99,,,0.01,51,weatherlink.com 1.10,2013-05-08 17:33:00,
2013-05-08 18:48:00,52.9,50.0,29.40,SSE,161,2.0,-999.0,88,-99.99,,,0.01,33,weatherlink.com 1.10,2013-05-08 17:48:00,
2013-05-08 19:03:00,53.0,49.0,29.40,ESE,123,6.0,-999.0,87,-99.99,,,0.01,19,weatherlink.com 1.10,2013-05-08 18:03:00,
2013-05-08 19:18:00,52.9,49.0,29.40,SSE,162,5.0,-999.0,85,-99.99,,,0.01,18,weatherlink.com 1.10,2013-05-08 18:18:00,
2013-05-08 19:48:00,51.9,48.0,29.41,SE,140,5.0,-999.0,86,-99.99,,,0.01,23,weatherlink.com 1.10,2013-05-08 18:48:00,
2013-05-08 20:03:00,51.9,48.0,29.41,South,184,4.0,-999.0,85,-99.99,,,0.01,28,weatherlink.com 1.10,2013-05-08 19:03:00,
2013-05-08 20:18:00,52.0,47.0,29.41,South,191,7.0,-999.0,83,-99.99,,,0.01,9,weatherlink.com 1.10,2013-05-08 19:18:00,
2013-05-08 20:33:00,51.8,47.0,29.40,ESE,121,11.0,-999.0,82,-99.99,,,0.01,11,weatherlink.com 1.10,2013-05-08 19:33:00,
2013-05-08 20:48:00,51.1,46.0,29.41,SSE,153,9.0,-999.0,83,-99.99,,,0.01,9,weatherlink.com 1.10,2013-05-08 19:48:00,
2013-05-08 21:03:00,50.7,46.0,29.41,SE,132,11.0,-999.0,84,-99.99,,,0.01,0,weatherlink.com 1.10,2013-05-08 20:03:00,
2013-05-08 21:18:00,50.6,46.0,29.42,SSE,148,11.0,-999.0,84,-99.99,,,0.01,0,weatherlink.com 1.10,2013-05-08 20:18:00,
2013-05-08 21:33:00,50.4,46.0,29.42,ESE,123,8.0,-999.0,84,-99.99,,,0.01,0,weatherlink.com 1.10,2013-05-08 20:33:00,
2013-05-08 21:48:00,50.1,46.0,29.43,SE,137,4.0,-999.0,84,-99.99,,,0.01,0,weatherlink.com 1.10,2013-05-08 20:48:00,
2013-05-08 22:03:00,49.8,45.0,29.43,SE,141,5.0,-999.0,84,-99.99,,,0.01,0,weatherlink.com 1.10,2013-05-08 21:03:00,
2013-05-08 22:18:00,49.1,45.0,29.43,SE,138,5.0,-999.0,85,-99.99,,,0.01,0,weatherlink.com 1.10,2013-05-08 21:18:00,
2013-05-08 22:33:00,49.2,45.0,29.44,SE,142,2.0,-999.0,85,-99.99,,,0.01,0,weatherlink.com 1.10,2013-05-08 21:33:00,
2013-05-08 22:48:00,49.3,45.0,29.44,South,188,4.0,-999.0,85,-99.99,,,0.01,0,weatherlink.com 1.10,2013-05-08 21:48:00,
2013-05-08 23:03:00,49.1,45.0,29.44,South,172,9.0,-999.0,85,-99.99,,,0.01,0,weatherlink.com 1.10,2013-05-08 22:03:00,
2013-05-08 23:18:00,49.1,45.0,29.45,South,180,5.0,-999.0,85,-99.99,,,0.01,0,weatherlink.com 1.10,2013-05-08 22:18:00,
2013-05-08 23:33:00,49.2,45.0,29.45,South,171,6.0,-999.0,85,-99.99,,,0.01,0,weatherlink.com 1.10,2013-05-08 22:33:00,
2013-05-08 23:48:00,49.3,45.0,29.45,SSE,161,8.0,-999.0,85,-99.99,,,0.01,0,weatherlink.com 1.10,2013-05-08 22:48:00,